Location: Kaarina
(60.4167°N, 22.4167°E)
Time: 03:53:58
(UTC+03:00)

Cosmos 2219 Rocket - Pass Details

Date: 24 August 2019
Orbit: 830 x 845 km, 71.0° (Epoch: 20 September)

Event Time Altitude Azimuth Distance (km) Brightness Sun altitude
Rises 23:09:57 0° 312° (NW) 3,393 7.1 -13.2°
Reaches altitude 10° 23:12:32 10° 319° (NW) 2,455 6.1 -13.4°
Maximum altitude 23:17:54 43° 31° (NNE) 1,153 3.1 -13.7°
Drops below altitude 10° 23:23:14 10° 103° (ESE) 2,442 4.2 -14.1°
Enters shadow 23:23:15 10° 103° (ESE) 2,449 4.2 -14.1°
